Flag for U.S.A. Weather past 2 weeks in Salinas, California, U.S.A.

Now
61 °F

Low clouds.


Feels Like: 61 °F
Forecast: 57 / 69 °F
Wind: 8 mph from West

Location: Salinas Municipal Airport

Current Time: Aug 22, 2014 at 10:50:12 PM

Latest Report: Aug 22, 2014 at 9:53 PM


Visibility: 10 mi

Pressure: 29.98 "Hg

Humidity: 87%

Dew point: 57 °F

Location of SalinasLocation

Historic Weather in Salinas — Graph

°F

Salinas temperature yesterday

Maximum temperature yesterday: 74 °F (at 11:53 AM)
Minimum temperature yesterday: 61 °F (at 11:53 PM)
Average temperature yesterday: 65 °F

Past Weeks' High & Low Weather Summary

 TemperatureHumidityPressure
High74 °F (Aug 13, 1:53 PM)100% (Aug 14, 5:53 AM)30.08 "Hg (Aug 14, 5:53 AM)
Low56 °F (Aug 17, 6:53 AM)48% (Aug 13, 1:53 PM)29.88 "Hg (Aug 18, 4:53 PM)
Average64 °F76%29.98 "Hg
* Reported Aug 7 9:53 PM — Aug 22 9:53 PM, Salinas, Weather by CustomWeather, © 2014

Note: Actual official high and low records may vary slightly from our data, if they occured in-between our weather recording intervals... More about our weather records

Advertising

Salinas weather history for previous 24 hours

 ConditionsComfort  
Time TempWeatherWind HumidityBarometerVisibility
9:53 PM
Aug 22
61 °FLow clouds.8 mph87%29.98 "Hg10 mi
8:53 PM62 °FLow clouds.9 mph86%29.97 "Hg10 mi
7:53 PM62 °FLow clouds.9 mph86%29.97 "Hg10 mi
6:53 PM63 °FLow clouds.12 mph84%29.96 "Hg10 mi
5:53 PM65 °FOvercast.14 mph81%29.96 "Hg10 mi
4:53 PM67 °FOvercast.14 mph73%29.96 "Hg10 mi
3:53 PM70 °FPassing clouds.16 mph66%29.96 "Hg10 mi
2:53 PM72 °FSunny.15 mph59%29.96 "Hg10 mi
1:53 PM70 °FSunny.12 mph61%29.97 "Hg10 mi
12:53 PM70 °FSunny.14 mph64%29.98 "Hg10 mi
11:53 AM71 °FSunny.13 mph59%29.98 "Hg10 mi
10:53 AM67 °FSunny.7 mph63%29.99 "Hg10 mi
9:53 AM62 °FOvercast.No wind78%30.00 "Hg8 mi
8:53 AM60 °FLow clouds.No wind83%30.00 "Hg8 mi
7:53 AM59 °FLow clouds.No wind87%30.00 "Hg8 mi
6:53 AM59 °FLow clouds.3 mph87%29.99 "Hg9 mi
5:53 AM59 °FLow clouds.No wind87%29.98 "Hg10 mi
4:53 AM59 °FLow clouds.3 mph87%29.98 "Hg10 mi
3:53 AM60 °FOvercast.No wind86%29.98 "Hg10 mi
2:53 AM60 °FOvercast.No wind86%29.98 "Hg10 mi
1:53 AM60 °FOvercast.No wind86%29.98 "Hg10 mi
12:53 AM61 °FPassing clouds.No wind83%29.98 "Hg10 mi
11:53 PM
Aug 21
61 °FPassing clouds.No wind83%29.98 "Hg10 mi
10:53 PM62 °FLow clouds.5 mph80%29.98 "Hg10 mi
Weather by CustomWeather, © 2014

See weather overviewHow to use our weather pages